Weather History for KMDJ - February, 2014

Change the Weather History Date:

Sunday, February 9, 2014

  Actual Average Record
Temperature  
Mean Temperature 65 °F -  
Max Temperature 68 °F - - ()
Min Temperature 62 °F - - ()
Growing Degree Days 15 (Base 50)    
Moisture  
Dew Point 59 °F    
Average Humidity 78    
Maximum Humidity 88    
Minimum Humidity 68    
Precipitation  
Precipitation 0.00 in - - ()
Sea Level Pressure  
Sea Level Pressure 30.15 in    
Wind  
Wind Speed 8 mph (SE)    
Max Wind Speed 17 mph    
Max Gust Speed -    
Visibility 10 miles    
Events      
Averages and records for this station are not official NWS values.
T = Trace of Precipitation, MM = Missing Value Source: NWS Daily Summary

Daily Weather History Graph

Daily Weather History Graph

Search for Another Location

Airport or City:

Trip Planner

Search our weather history database for the weather conditions in past years. The results will help you decide how hot, cold, wet, or windy it might be!

Date:

Astronomy

Feb. 09, 2014 Rise Set
Actual Time 6:42 AM CST 5:44 PM CST
Civil Twilight 6:17 AM CST 6:09 PM CST
Nautical Twilight 5:49 AM CST 6:37 PM CST
Astronomical Twilight 5:22 AM CST 7:04 PM CST
Moon 1:33 PM CST (2/9) 2:39 AM CST (2/9)
Length of Visible Light 11h 51m
Length of Day
11h 02m
Waxing Gibbous, 77% of the Moon is Illuminated
Feb 9
Waxing Gibbous
Feb 14
Full
Feb 22
Last Quarter
Mar 1
New
Mar 8
First Quarter

Hourly Weather History & Observations

Time (CST) Temp. Dew Point Humidity Pressure Visibility Wind Dir Wind Speed Gust Speed Precip Events Conditions
12:15 AM 64.4 °F 55.4 °F 73% 30.18 in 10.0 mi Calm Calm - N/A   Overcast
12:35 AM 62.6 °F 57.2 °F 82% 30.19 in 10.0 mi NE 6.9 mph - N/A   Overcast
12:55 AM 62.6 °F 57.2 °F 82% 30.19 in 10.0 mi ENE 8.1 mph - N/A   Mostly Cloudy
1:15 AM 62.6 °F 57.2 °F 82% 30.17 in 10.0 mi ENE 9.2 mph - N/A   Scattered Clouds
1:35 AM 62.6 °F 57.2 °F 82% 30.17 in 10.0 mi East 9.2 mph - N/A   Clear
1:55 AM 62.6 °F 57.2 °F 82% 30.16 in 10.0 mi ENE 9.2 mph - N/A   Clear
2:15 AM 62.6 °F 57.2 °F 82% 30.16 in 10.0 mi ENE 8.1 mph - N/A   Scattered Clouds
2:35 AM 62.6 °F 59.0 °F 88% 30.15 in 10.0 mi ENE 10.4 mph - N/A   Partly Cloudy
2:55 AM 62.6 °F 59.0 °F 88% 30.15 in 10.0 mi ENE 9.2 mph - N/A   Clear
3:15 AM 62.6 °F 59.0 °F 88% 30.15 in 10.0 mi East 6.9 mph - N/A   Partly Cloudy
3:35 AM 62.6 °F 59.0 °F 88% 30.14 in 10.0 mi East 8.1 mph - N/A   Partly Cloudy
3:55 AM 64.4 °F 59.0 °F 83% 30.14 in 10.0 mi ESE 9.2 mph - N/A   Clear
4:15 AM 64.4 °F 59.0 °F 83% 30.14 in 10.0 mi ESE 9.2 mph - N/A   Clear
4:35 AM 64.4 °F 59.0 °F 83% 30.14 in 10.0 mi ESE 8.1 mph - N/A   Clear
4:55 AM 64.4 °F 59.0 °F 83% 30.15 in 10.0 mi East 8.1 mph - N/A   Mostly Cloudy
5:15 AM 64.4 °F 59.0 °F 83% 30.15 in 10.0 mi ESE 8.1 mph - N/A   Mostly Cloudy
5:35 AM 64.4 °F 59.0 °F 83% 30.15 in 10.0 mi SE 9.2 mph - N/A   Scattered Clouds
5:55 AM 64.4 °F 59.0 °F 83% 30.15 in 10.0 mi ESE 10.4 mph - N/A   Partly Cloudy
6:15 AM 64.4 °F 59.0 °F 83% 30.16 in 10.0 mi SE 9.2 mph - N/A   Partly Cloudy
6:35 AM 64.4 °F 57.2 °F 77% 30.16 in 10.0 mi SSE 6.9 mph - N/A   Clear
6:55 AM 66.2 °F 57.2 °F 73% 30.17 in 10.0 mi SE 6.9 mph - N/A   Mostly Cloudy
7:15 AM 66.2 °F 57.2 °F 73% 30.17 in 10.0 mi SE 5.8 mph - N/A   Mostly Cloudy
7:35 AM 66.2 °F 57.2 °F 73% 30.18 in 10.0 mi SE 4.6 mph - N/A   Overcast
7:55 AM 66.2 °F 57.2 °F 73% 30.18 in 10.0 mi SE 6.9 mph - N/A   Overcast
8:15 AM 66.2 °F 57.2 °F 73% 30.18 in 10.0 mi SE 6.9 mph - N/A   Mostly Cloudy
8:35 AM 66.2 °F 57.2 °F 73% 30.18 in 10.0 mi SE 6.9 mph - N/A   Overcast
8:55 AM 66.2 °F 59.0 °F 78% 30.19 in 10.0 mi SE 8.1 mph - N/A   Partly Cloudy
9:15 AM 66.2 °F 59.0 °F 78% 30.20 in 10.0 mi SE 8.1 mph - N/A   Mostly Cloudy
9:35 AM 66.2 °F 59.0 °F 78% 30.20 in 10.0 mi SE 6.9 mph - N/A   Overcast
9:55 AM 68.0 °F 57.2 °F 68% 30.20 in 10.0 mi SE 6.9 mph - N/A   Overcast
10:15 AM 68.0 °F 57.2 °F 68% 30.21 in 10.0 mi SE 6.9 mph - N/A   Overcast
10:35 AM 68.0 °F 57.2 °F 68% 30.20 in 10.0 mi SE 6.9 mph - N/A   Mostly Cloudy
10:55 AM 68.0 °F 59.0 °F 73% 30.20 in 10.0 mi SE 5.8 mph - N/A   Mostly Cloudy
11:15 AM 68.0 °F 57.2 °F 68% 30.19 in 10.0 mi SE 6.9 mph - N/A   Scattered Clouds
11:35 AM 68.0 °F 57.2 °F 68% 30.19 in 10.0 mi SE 5.8 mph - N/A   Scattered Clouds
11:55 AM 68.0 °F 59.0 °F 73% 30.18 in 10.0 mi SE 6.9 mph - N/A   Scattered Clouds
12:15 PM 68.0 °F 59.0 °F 73% 30.17 in 10.0 mi SE 8.1 mph - N/A   Partly Cloudy
12:35 PM 68.0 °F 59.0 °F 73% 30.16 in 10.0 mi SE 8.1 mph - N/A   Clear
12:55 PM 66.2 °F 59.0 °F 78% 30.15 in 10.0 mi SE 8.1 mph - N/A   Clear
1:15 PM 68.0 °F 59.0 °F 73% 30.15 in 10.0 mi SSE 8.1 mph - N/A   Clear
1:35 PM 68.0 °F 59.0 °F 73% 30.14 in 10.0 mi SSE 10.4 mph - N/A   Clear
1:55 PM 68.0 °F 59.0 °F 73% 30.14 in 10.0 mi SSE 10.4 mph - N/A   Clear
2:15 PM 68.0 °F 59.0 °F 73% 30.13 in 10.0 mi SSE 11.5 mph - N/A   Clear
2:35 PM 68.0 °F 59.0 °F 73% 30.11 in - SSE 12.7 mph - N/A   Clear
2:55 PM 68.0 °F 60.8 °F 78% 30.11 in 10.0 mi SSE 13.8 mph - N/A   Partly Cloudy
3:15 PM 66.2 °F 60.8 °F 83% 30.10 in 10.0 mi SSE 13.8 mph - N/A   Clear
3:35 PM 66.2 °F 60.8 °F 83% 30.10 in 10.0 mi SSE 13.8 mph - N/A   Partly Cloudy
3:55 PM 66.2 °F 60.8 °F 83% 30.10 in 10.0 mi SSE 13.8 mph - N/A   Scattered Clouds
4:15 PM 66.2 °F 60.8 °F 83% 30.12 in 10.0 mi SSE 12.7 mph - N/A   Scattered Clouds
4:35 PM 66.2 °F 60.8 °F 83% 30.13 in 10.0 mi SSE 9.2 mph - N/A   Partly Cloudy
4:55 PM 66.2 °F 60.8 °F 83% 30.13 in 10.0 mi SE 9.2 mph - N/A   Mostly Cloudy
5:15 PM 68.0 °F 60.8 °F 78% 30.13 in 10.0 mi SSE 11.5 mph - N/A   Overcast
5:35 PM 66.2 °F 59.0 °F 78% 30.13 in 10.0 mi SSE 11.5 mph - N/A   Scattered Clouds
5:55 PM 66.2 °F 59.0 °F 78% 30.13 in 10.0 mi SSE 11.5 mph - N/A   Clear
6:15 PM 66.2 °F 59.0 °F 78% 30.13 in 10.0 mi SSE 12.7 mph - N/A   Clear
6:35 PM 66.2 °F 59.0 °F 78% 30.13 in 10.0 mi SSE 11.5 mph - N/A   Partly Cloudy
6:55 PM 66.2 °F 59.0 °F 78% 30.13 in 10.0 mi SSE 12.7 mph - N/A   Clear
7:15 PM 66.2 °F 59.0 °F 78% 30.14 in 10.0 mi SSE 11.5 mph - N/A   Clear
7:35 PM 68.0 °F 60.8 °F 78% 30.14 in 10.0 mi SSE 9.2 mph - N/A   Scattered Clouds
7:55 PM 68.0 °F 60.8 °F 78% 30.14 in 10.0 mi South 10.4 mph - N/A   Scattered Clouds
8:15 PM 68.0 °F 60.8 °F 78% 30.14 in 10.0 mi South 10.4 mph - N/A   Clear
8:35 PM 68.0 °F 60.8 °F 78% 30.14 in 10.0 mi South 12.7 mph - N/A   Clear
8:55 PM 68.0 °F 60.8 °F 78% 30.14 in 10.0 mi South 12.7 mph - N/A   Partly Cloudy
9:15 PM 68.0 °F 60.8 °F 78% 30.13 in 10.0 mi South 17.3 mph - N/A   Mostly Cloudy
9:35 PM 68.0 °F 60.8 °F 78% 30.14 in 10.0 mi South 16.1 mph - N/A   Mostly Cloudy
9:55 PM 68.0 °F 60.8 °F 78% 30.14 in 10.0 mi South 15.0 mph - N/A   Mostly Cloudy
10:15 PM 68.0 °F 59.0 °F 73% 30.14 in 10.0 mi South 16.1 mph - N/A   Scattered Clouds
10:35 PM 68.0 °F 60.8 °F 78% 30.14 in 10.0 mi South 13.8 mph - N/A   Partly Cloudy
10:55 PM 68.0 °F 59.0 °F 73% 30.13 in 10.0 mi South 15.0 mph - N/A   Scattered Clouds
11:15 PM 68.0 °F 59.0 °F 73% 30.13 in 10.0 mi South 15.0 mph - N/A   Partly Cloudy
11:35 PM 68.0 °F 59.0 °F 73% 30.13 in 10.0 mi South 13.8 mph - N/A   Clear
11:55 PM 68.0 °F 59.0 °F 73% 30.13 in 10.0 mi South 13.8 mph - N/A   Partly Cloudy